TimeEDT,TemperatureF,Dew PointF,Humidity,Sea Level PressureIn,VisibilityMPH,Wind Direction,Wind SpeedMPH,Gust SpeedMPH,PrecipitationIn,Events,Conditions,WindDirDegrees,DateUTC
12:53 AM,52.0,48.9,89,29.99,10.0,Calm,Calm,-,N/A,,Clear,0,2012-10-02 04:53:00
1:53 AM,55.0,51.1,86,29.99,10.0,Calm,Calm,-,N/A,,Mostly Cloudy,0,2012-10-02 05:53:00
3:53 AM,57.0,53.1,87,30.00,10.0,Calm,Calm,-,N/A,,Overcast,0,2012-10-02 07:53:00
4:53 AM,57.9,55.0,90,30.01,10.0,Calm,Calm,-,N/A,,Overcast,0,2012-10-02 08:53:00
5:53 AM,59.0,55.9,90,30.02,10.0,Calm,Calm,-,N/A,,Overcast,0,2012-10-02 09:53:00
6:53 AM,60.1,55.9,86,30.03,10.0,Calm,Calm,-,N/A,,Overcast,0,2012-10-02 10:53:00
7:53 AM,61.0,57.9,90,30.04,10.0,Calm,Calm,-,N/A,,Overcast,0,2012-10-02 11:53:00
8:53 AM,64.9,59.0,81,30.06,10.0,Calm,Calm,-,N/A,,Overcast,0,2012-10-02 12:53:00
9:53 AM,69.1,59.0,70,30.06,10.0,Variable,3.5,-,N/A,,Overcast,0,2012-10-02 13:53:00
10:53 AM,71.1,52.0,51,30.06,10.0,SE,5.8,-,N/A,,Clear,140,2012-10-02 14:53:00
11:53 AM,72.0,52.0,49,30.05,10.0,SE,8.1,-,N/A,,Partly Cloudy,130,2012-10-02 15:53:00
12:53 PM,69.1,55.0,61,30.04,10.0,SE,5.8,-,N/A,,Overcast,140,2012-10-02 16:53:00
1:53 PM,69.1,55.9,63,30.04,10.0,SSE,4.6,-,N/A,,Overcast,150,2012-10-02 17:53:00
2:53 PM,66.9,62.1,84,30.04,10.0,NE,3.5,-,0.01,Rain,Light Rain,40,2012-10-02 18:53:00
3:53 PM,66.0,63.0,90,30.02,5.0,East,3.5,-,0.04,Rain,Rain,100,2012-10-02 19:53:00
4:53 PM,66.0,63.0,90,30.02,10.0,Variable,3.5,-,0.02,Rain,Light Rain,0,2012-10-02 20:53:00
5:06 PM,64.4,62.6,94,30.01,8.0,ESE,4.6,-,0.01,Rain,Light Rain,110,2012-10-02 21:06:00
5:36 PM,64.4,62.6,94,30.01,10.0,ESE,3.5,-,0.01,Rain,Light Rain,110,2012-10-02 21:36:00
5:45 PM,64.4,62.6,94,30.01,10.0,East,3.5,-,0.01,Rain,Light Rain,90,2012-10-02 21:45:00
5:53 PM,64.9,62.1,90,30.01,10.0,Calm,Calm,-,0.01,,Overcast,0,2012-10-02 21:53:00
6:42 PM,64.4,62.6,94,30.00,5.0,East,6.9,-,0.02,Rain,Light Rain,80,2012-10-02 22:42:00
6:53 PM,64.9,63.0,93,30.00,8.0,East,5.8,-,0.02,Rain,Light Rain,90,2012-10-02 22:53:00
7:04 PM,64.4,62.6,94,30.01,10.0,East,4.6,-,0.00,,Overcast,90,2012-10-02 23:04:00
7:41 PM,66.2,62.6,88,30.02,9.0,East,5.8,-,0.01,Rain,Light Rain,100,2012-10-02 23:41:00
7:53 PM,66.0,64.0,93,30.02,8.0,East,6.9,-,0.01,,Overcast,90,2012-10-02 23:53:00
8:17 PM,66.2,64.4,94,30.01,2.5,East,8.1,-,0.04,Rain,Light Rain,90,2012-10-03 00:17:00
8:23 PM,66.2,64.4,94,30.01,4.0,East,6.9,-,0.04,Rain,Light Rain,100,2012-10-03 00:23:00
8:53 PM,66.9,64.9,93,30.01,6.0,East,6.9,-,0.04,,Overcast,100,2012-10-03 00:53:00
10:53 PM,69.1,68.0,96,30.01,6.0,SE,5.8,-,0.08,,Overcast,140,2012-10-03 02:53:00
11:53 PM,69.1,68.0,96,30.01,3.0,ESE,4.6,-,0.00,,Overcast,120,2012-10-03 03:53:00